�N����,����,�g�[���i���ԁj���x,�g�[�����x,��g�[���i���ցj���x,����
 2002/11/01, 0:00,22.9,48,20.2,18.5
 2002/11/01, 0:15,22.9,48,20.2,18.5
 2002/11/01, 0:30,22.9,48,20.2,18.5
 2002/11/01, 0:45,22.9,48,20.3,18.5
 2002/11/01, 1:00,22.9,48,20.3,19
 2002/11/01, 1:15,22.9,48,20.4,19.1
 2002/11/01, 1:30,22.8,48,20.5,19.1
 2002/11/01, 1:45,22.7,49,20.5,19.1
 2002/11/01, 2:00,22.6,49,20.5,18.4
 2002/11/01, 2:15,22.5,49,20.5,18.4
 2002/11/01, 2:30,22.4,50,20.5,18.4
 2002/11/01, 2:45,22.4,50,20.5,18.4
 2002/11/01, 3:00,22.4,50,20.6,18.5
 2002/11/01, 3:15,22.4,51,20.6,18.5
 2002/11/01, 3:30,22.4,51,20.6,18.5
 2002/11/01, 3:45,22.3,50,20.6,18.5
 2002/11/01, 4:00,22.3,51,20.6,18.6
 2002/11/01, 4:15,22.3,51,20.6,18.6
 2002/11/01, 4:30,22.3,51,20.6,18.6
 2002/11/01, 4:45,22.2,51,20.6,18.6
 2002/11/01, 5:00,22.2,51,20.6,18.7
 2002/11/01, 5:15,22.2,51,20.6,18.7
 2002/11/01, 5:30,22.1,51,20.6,18.7
 2002/11/01, 5:45,22.2,51,20.6,18.7
 2002/11/01, 6:00,22.2,52,20.6,19.3
 2002/11/01, 6:15,22.3,55,20.7,18.7
 2002/11/01, 6:30,22.4,57,20.7,18.7
 2002/11/01, 6:45,22.4,54,21,18.8
 2002/11/01, 7:00,22.4,54,21.1,18.8
 2002/11/01, 7:15,22.4,54,21,18.8
 2002/11/01, 7:30,22.5,54,20.9,18.5
 2002/11/01, 7:45,22.6,54,20.9,18.6
 2002/11/01, 8:00,22.6,53,20.8,18.6
 2002/11/01, 8:15,22.7,53,20.9,18.5
 2002/11/01, 8:30,22.6,53,20.8,18.3
 2002/11/01, 8:45,22.6,53,20.9,18.3
 2002/11/01, 9:00,22.7,53,20.8,18.3
 2002/11/01, 9:15,22.7,53,20.8,18.3
 2002/11/01, 9:30,22.5,52,20.9,18.3
 2002/11/01, 9:45,22.4,52,20.8,18.3
 2002/11/01,10:00,22.5,52,20.7,18.3
 2002/11/01,10:15,22.3,51,20.8,18.4
 2002/11/01,10:30,22.3,52,20.8,18.4
 2002/11/01,10:45,22.2,52,20.7,18.4
 2002/11/01,11:00,22.2,52,20.6,18.5
 2002/11/01,11:15,22.2,51,20.6,18.5
 2002/11/01,11:30,22.1,52,20.6,18.5
 2002/11/01,11:45,22.1,52,20.7,18.5
 2002/11/01,12:00,22.1,52,20.6,18.6
 2002/11/01,12:15,22.1,52,20.6,18.6
 2002/11/01,12:30,22,52,20.6,18.6
 2002/11/01,12:45,22,52,20.7,18.6
 2002/11/01,13:00,22,52,20.6,18.7
 2002/11/01,13:15,22.1,52,20.6,18.7
 2002/11/01,13:30,22,52,20.6,18.7
 2002/11/01,13:45,22,52,20.6,18.7
 2002/11/01,14:00,22.1,54,20.6,18.8
 2002/11/01,14:15,22.2,57,20.6,18.8
 2002/11/01,14:30,22.4,59,20.7,18.8
 2002/11/01,14:45,22.4,57,20.6,18.8
 2002/11/01,15:00,22.4,56,20.6,19.1
 2002/11/01,15:15,22.3,57,20.6,19.1
 2002/11/01,15:30,22.3,56,20.7,19.2
 2002/11/01,15:45,22.3,55,20.6,19.2
 2002/11/01,16:00,22.2,56,20.5,19.1
 2002/11/01,16:15,22.3,55,20.6,19.1
 2002/11/01,16:30,22.2,55,20.5,19.3
 2002/11/01,16:45,22.2,55,20.5,19.3
 2002/11/01,17:00,22,55,20.5,19.3
 2002/11/01,17:15,21.9,55,20.5,19.3
 2002/11/01,17:30,21.9,57,20.8,19.3
 2002/11/01,17:45,21.9,57,20.8,19.6
 2002/11/01,18:00,22,56,20.6,19
 2002/11/01,18:15,21.9,55,20.6,19
 2002/11/01,18:30,21.9,54,20.5,19.1
 2002/11/01,18:45,22,59,20.5,19.1
 2002/11/01,19:00,22.1,54,20.4,19.1
 2002/11/01,19:15,21.9,56,20.4,19.1
 2002/11/01,19:30,22,55,20.4,19.1
 2002/11/01,19:45,22.1,54,20.4,19.1
 2002/11/01,20:00,22.2,54,20.4,19.1
 2002/11/01,20:15,22.2,55,20.4,18.8
 2002/11/01,20:30,22.3,56,20.5,18.9
 2002/11/01,20:45,22.4,56,20.5,18.9
 2002/11/01,21:00,22.5,55,20.7,19.1
 2002/11/01,21:15,22.5,55,20.8,18.3
 2002/11/01,21:30,22.6,54,20.7,18.2
 2002/11/01,21:45,22.5,55,20.6,18.2
 2002/11/01,22:00,22.6,55,20.7,18.2
 2002/11/01,22:15,22.7,55,20.7,18.2
 2002/11/01,22:30,22.7,54,20.8,18.3
 2002/11/01,22:45,22.7,54,20.8,18.4
 2002/11/01,23:00,22.7,55,20.8,18.4
 2002/11/01,23:15,22.7,55,20.8,18.4
 2002/11/01,23:30,22.8,54,20.8,18.5
 2002/11/01,23:45,22.9,54,20.7,18.5
 2002/11/02, 0:00,22.9,52,20.7,18.7
 2002/11/02, 0:15,22.9,51,20.7,18.7
 2002/11/02, 0:30,22.9,51,20.8,18.2
 2002/11/02, 0:45,22.8,51,20.8,18.3
 2002/11/02, 1:00,22.7,51,20.8,18.5
 2002/11/02, 1:15,22.6,51,20.7,18.5
 2002/11/02, 1:30,22.4,50,20.7,18.5
 2002/11/02, 1:45,22.3,50,20.7,18.5
 2002/11/02, 2:00,22.3,51,20.7,18.5
 2002/11/02, 2:15,22.2,51,20.7,18.6
 2002/11/02, 2:30,22.1,51,20.6,18.6
 2002/11/02, 2:45,22.1,51,20.6,18.6
 2002/11/02, 3:00,22.1,50,20.5,19.2
 2002/11/02, 3:15,22.1,51,20.5,19.2
 2002/11/02, 3:30,22,50,20.5,19.2
 2002/11/02, 3:45,22,50,20.5,19.2
 2002/11/02, 4:00,22,50,20.5,19.2
 2002/11/02, 4:15,21.9,50,20.4,19.2
 2002/11/02, 4:30,21.9,50,20.4,19.2
 2002/11/02, 4:45,21.9,50,20.4,19.2
 2002/11/02, 5:00,21.9,50,20.4,19.2
 2002/11/02, 5:15,21.8,50,20.3,19.3
 2002/11/02, 5:30,21.8,50,20.3,19.5
 2002/11/02, 5:45,21.8,50,20.3,19.5
 2002/11/02, 6:00,21.7,50,20.3,17.6
 2002/11/02, 6:15,21.9,51,20.3,17.7
 2002/11/02, 6:30,22,52,20.6,17.7
 2002/11/02, 6:45,22,54,20.6,18.1
 2002/11/02, 7:00,22.2,55,20.5,18.1
 2002/11/02, 7:15,22.3,54,20.3,18.1
 2002/11/02, 7:30,22.3,49,20.1,18.6
 2002/11/02, 7:45,22.3,48,20,18.7
 2002/11/02, 8:00,22.3,51,20.1,18.8
 2002/11/02, 8:15,22.5,49,20.1,18.9
 2002/11/02, 8:30,22.5,48,20.1,18.9
 2002/11/02, 8:45,22.4,48,20.5,18.9
 2002/11/02, 9:00,22.3,48,20.5,18.9
 2002/11/02, 9:15,22.2,48,20.3,18.9
 2002/11/02, 9:30,22.1,48,20.3,18.9
 2002/11/02, 9:45,22,48,20.3,18.9
 2002/11/02,10:00,22,48,20.2,19
 2002/11/02,10:15,22,48,20.2,19
 2002/11/02,10:30,22,48,20.2,19
 2002/11/02,10:45,22,48,20.2,19
 2002/11/02,11:00,22,48,20.5,19
 2002/11/02,11:15,22.1,48,20.7,19
 2002/11/02,11:30,22.1,48,20.7,19
 2002/11/02,11:45,22.4,48,20.6,18.4
 2002/11/02,12:00,22.3,42,20.4,18.4
 2002/11/02,12:15,22.2,40,20.2,18
 2002/11/02,12:30,22.2,37,20.2,18
 2002/11/02,12:45,22.9,39,20.3,18
 2002/11/02,13:00,23,40,20.3,18
 2002/11/02,13:15,23.5,40,20.5,18.2
 2002/11/02,13:30,23.6,40,20.6,18.2
 2002/11/02,13:45,23.6,40,20.6,18.1
 2002/11/02,14:00,23.6,41,20.7,18.1
 2002/11/02,14:15,24,40,20.8,18.1
 2002/11/02,14:30,24.2,40,20.8,18.2
 2002/11/02,14:45,23.8,40,20.8,18.2
 2002/11/02,15:00,23.3,42,20.8,18.2
 2002/11/02,15:15,23.1,42,20.9,18.2
 2002/11/02,15:30,22.9,43,20.8,18.3
 2002/11/02,15:45,22.8,43,20.8,18.3
 2002/11/02,16:00,22.6,44,20.8,18.3
 2002/11/02,16:15,22.6,44,20.7,18.3
 2002/11/02,16:30,22.5,45,20.6,18.4
 2002/11/02,16:45,22.5,44,20.5,18.4
 2002/11/02,17:00,22.5,43,20.3,18.4
 2002/11/02,17:15,22.4,43,20.1,18.4
 2002/11/02,17:30,22.4,42,20,18.5
 2002/11/02,17:45,22.4,41,19.9,18.5
 2002/11/02,18:00,22.3,41,19.9,18.7
 2002/11/02,18:15,22.4,42,20,18.7
 2002/11/02,18:30,22.4,43,20.1,18.7
 2002/11/02,18:45,22.5,44,20.2,18.7
 2002/11/02,19:00,22.5,44,20.2,18.8
 2002/11/02,19:15,22.6,44,20.3,18.8
 2002/11/02,19:30,22.6,45,20.3,19
 2002/11/02,19:45,22.7,45,20.4,19.1
 2002/11/02,20:00,22.8,46,20.5,19
 2002/11/02,20:15,22.7,44,20.2,18.1
 2002/11/02,20:30,22.6,48,20.2,18.1
 2002/11/02,20:45,22.6,50,20.1,18.1
 2002/11/02,21:00,22.8,48,20.2,18.1
 2002/11/02,21:15,22.9,48,20.3,18.1
 2002/11/02,21:30,22.9,47,20.4,18.4
 2002/11/02,21:45,22.9,46,20.5,18.4
 2002/11/02,22:00,22.9,47,20.5,18.4
 2002/11/02,22:15,22.9,47,20.5,18.4
 2002/11/02,22:30,23,47,20.5,18.5
 2002/11/02,22:45,23,48,20.4,18.5
 2002/11/02,23:00,23,47,20.4,18.5
 2002/11/02,23:15,23,47,20.4,18.5
 2002/11/02,23:30,23,48,20.3,18.5
 2002/11/02,23:45,23,48,20.4,18.6
 2002/11/03, 0:00,23.1,48,20.3,18.6
 2002/11/03, 0:15,23.1,48,20.3,18.6
 2002/11/03, 0:30,23.1,47,20.3,18.6
 2002/11/03, 0:45,23.1,48,20.3,18.7
 2002/11/03, 1:00,23.1,48,20.4,18.7
 2002/11/03, 1:15,23.1,48,20.3,18.7
 2002/11/03, 1:30,23.1,48,20.4,18.7
 2002/11/03, 1:45,23.1,48,20.4,18.8
 2002/11/03, 2:00,23.2,48,20.4,18.8
 2002/11/03, 2:15,23.1,48,20.4,18.8
 2002/11/03, 2:30,23,48,20.4,18.8
 2002/11/03, 2:45,22.9,49,20.4,18.9
 2002/11/03, 3:00,22.8,49,20.4,18.9
 2002/11/03, 3:15,22.7,49,20.3,18.9
 2002/11/03, 3:30,22.6,49,20.3,18.9
 2002/11/03, 3:45,22.6,50,20.3,19
 2002/11/03, 4:00,22.5,50,20.3,19
 2002/11/03, 4:15,22.5,50,20.3,19
 2002/11/03, 4:30,22.4,50,20.3,19
 2002/11/03, 4:45,22.4,50,20.3,19
 2002/11/03, 5:00,22.4,50,20.3,19.3
 2002/11/03, 5:15,22.4,51,20.3,17.2
 2002/11/03, 5:30,22.4,50,20.3,17.2
 2002/11/03, 5:45,22.3,48,20.1,17.7
 2002/11/03, 6:00,22.2,46,20.1,17.7
 2002/11/03, 6:15,22.1,45,19.9,17.9
 2002/11/03, 6:30,22.1,45,19.8,18
 2002/11/03, 6:45,22,43,19.7,18.3
 2002/11/03, 7:00,21.8,43,19.7,18.3
 2002/11/03, 7:15,21.7,41,19.6,18.3
 2002/11/03, 7:30,21.5,42,19.5,18.8
 2002/11/03, 7:45,21.5,44,19.4,18.3
 2002/11/03, 8:00,21.6,46,19.4,18.3
 2002/11/03, 8:15,21.9,48,19.3,18.3
 2002/11/03, 8:30,22,45,19.2,18.4
 2002/11/03, 8:45,22,45,19.5,18.3
 2002/11/03, 9:00,22.1,47,19.7,18.4
 2002/11/03, 9:15,22.2,47,19.6,18.4
 2002/11/03, 9:30,22.2,48,19.8,18.4
 2002/11/03, 9:45,22.1,44,19.6,18.6
 2002/11/03,10:00,22.1,44,19.6,18.6
 2002/11/03,10:15,22.3,48,19.8,17.8
 2002/11/03,10:30,22.3,44,19.8,17.8
 2002/11/03,10:45,22.3,44,19.8,17.6
 2002/11/03,11:00,22.3,46,20,17.6
 2002/11/03,11:15,22.4,46,20,17.6
 2002/11/03,11:30,22.3,46,20,17.6
 2002/11/03,11:45,22.4,46,20,17.7
 2002/11/03,12:00,22.5,45,20.1,17.7
 2002/11/03,12:15,22.3,45,20.1,17.7
 2002/11/03,12:30,22.3,45,20.1,17.7
 2002/11/03,12:45,22.4,45,20.1,17.8
 2002/11/03,13:00,22.3,44,20.1,17.8
 2002/11/03,13:15,22.4,44,20.1,17.8
 2002/11/03,13:30,22.3,44,20.1,17.8
 2002/11/03,13:45,22.6,44,20.1,17.9
 2002/11/03,14:00,22.7,43,20.1,17.9
 2002/11/03,14:15,22.5,44,20.2,17.9
 2002/11/03,14:30,22.3,44,20.1,18
 2002/11/03,14:45,22.2,44,20.1,18
 2002/11/03,15:00,22.1,44,20.1,18
 2002/11/03,15:15,22,44,20.1,18.1
 2002/11/03,15:30,22,44,20,18.1
 2002/11/03,15:45,21.9,44,20,18.1
 2002/11/03,16:00,21.9,44,20,18.1
 2002/11/03,16:15,21.8,44,20,18.2
 2002/11/03,16:30,21.8,45,19.9,18.2
 2002/11/03,16:45,21.7,45,19.9,18.2
 2002/11/03,17:00,21.7,45,19.9,18.2
 2002/11/03,17:15,21.6,45,19.9,18.3
 2002/11/03,17:30,21.6,45,19.9,18.3
 2002/11/03,17:45,21.5,45,19.8,18.3
 2002/11/03,18:00,21.5,45,19.8,18.3
 2002/11/03,18:15,21.5,45,19.8,18.4
 2002/11/03,18:30,21.5,48,20.2,17.7
 2002/11/03,18:45,21.6,46,20.1,17.7
 2002/11/03,19:00,21.6,47,19.8,17.7
 2002/11/03,19:15,21.7,48,19.7,17.7
 2002/11/03,19:30,21.8,48,19.5,18
 2002/11/03,19:45,21.8,51,19.5,18.1
 2002/11/03,20:00,22,50,19.7,18.1
 2002/11/03,20:15,22.1,49,20,18.2
 2002/11/03,20:30,22.2,49,20.2,18.2
 2002/11/03,20:45,22.3,49,20.4,18.2
 2002/11/03,21:00,22.3,50,20.3,17.3
 2002/11/03,21:15,22.3,50,20.2,17.4
 2002/11/03,21:30,22.3,52,20.2,17.4
 2002/11/03,21:45,22.3,51,20.2,17.5
 2002/11/03,22:00,22.3,50,20.2,18
 2002/11/03,22:15,22.3,49,20.1,18
 2002/11/03,22:30,22.3,48,20.1,17.5
 2002/11/03,22:45,22.3,48,20.1,17.5
 2002/11/03,23:00,22.3,48,20.1,17.6
 2002/11/03,23:15,22.3,48,20.1,17.6
 2002/11/03,23:30,22.3,48,20.1,17.6
 2002/11/03,23:45,22.3,48,20.1,17.7
 2002/11/04, 0:00,22.3,48,20,17.7
 2002/11/04, 0:15,22.3,48,20,17.7
 2002/11/04, 0:30,22.3,48,20,17.8
 2002/11/04, 0:45,22.3,48,20,17.8
 2002/11/04, 1:00,22.3,48,20,17.8
 2002/11/04, 1:15,22.3,48,20,17.8
 2002/11/04, 1:30,22.3,48,20,17.9
 2002/11/04, 1:45,22.3,48,20,17.9
 2002/11/04, 2:00,22.3,48,20,17.9
 2002/11/04, 2:15,22.3,48,20,17.9
 2002/11/04, 2:30,22.3,48,20,18
 2002/11/04, 2:45,22.2,48,20,17.2
 2002/11/04, 3:00,22.1,48,19.9,17.2
 2002/11/04, 3:15,22,48,19.9,17.3
 2002/11/04, 3:30,21.9,48,19.9,17.3
 2002/11/04, 3:45,21.8,48,19.9,17.3
 2002/11/04, 4:00,21.7,47,19.8,17.4
 2002/11/04, 4:15,21.6,47,19.8,17.4
 2002/11/04, 4:30,21.6,47,19.8,17.4
 2002/11/04, 4:45,21.5,48,19.7,17.5
 2002/11/04, 5:00,21.5,47,19.7,17.5
 2002/11/04, 5:15,21.4,47,19.7,17.5
 2002/11/04, 5:30,21.4,47,19.6,17.6
 2002/11/04, 5:45,21.4,48,19.5,16.6
 2002/11/04, 6:00,21.5,48,19.5,16.6
 2002/11/04, 6:15,21.5,47,19.2,16.6
 2002/11/04, 6:30,21.5,43,19.1,16.7
 2002/11/04, 6:45,21.4,40,19,16.7
 2002/11/04, 7:00,21.4,42,19,17.6
 2002/11/04, 7:15,21.6,43,19,18.3
 2002/11/04, 7:30,21.8,46,19.1,18.3
 2002/11/04, 7:45,21.9,44,19.2,18.3
 2002/11/04, 8:00,21.9,44,19.2,18.3
 2002/11/04, 8:15,21.9,44,19.2,18.3
 2002/11/04, 8:30,22,44,19.2,18.4
 2002/11/04, 8:45,22,43,19.3,18.4
 2002/11/04, 9:00,22,43,19.3,18.4
 2002/11/04, 9:15,22,43,19.3,18.4
 2002/11/04, 9:30,22,43,19.3,18.4
 2002/11/04, 9:45,22,43,19.3,18.4
 2002/11/04,10:00,22,43,19.3,18.8
 2002/11/04,10:15,22.1,42,19.3,18.8
 2002/11/04,10:30,22.2,42,19.4,18.8
 2002/11/04,10:45,22.4,41,19.4,18.8
 2002/11/04,11:00,22.6,40,19.5,18.8
 2002/11/04,11:15,22.9,39,19.6,18.8
 2002/11/04,11:30,22.6,37,19.5,17.5
 2002/11/04,11:45,22.5,30,19.5,17.5
 2002/11/04,12:00,22.4,32,19.4,17.6
 2002/11/04,12:15,22.2,33,19.3,17.6
 2002/11/04,12:30,22.4,37,19.4,17.7
 2002/11/04,12:45,22.5,36,19.4,17.8
 2002/11/04,13:00,22.8,35,19.5,17.8
 2002/11/04,13:15,23.3,34,19.7,17.8
 2002/11/04,13:30,23.1,31,19.7,17.2
 2002/11/04,13:45,23.2,26,19.6,17.2
 2002/11/04,14:00,23.3,25,19.5,17.2
 2002/11/04,14:15,23.2,25,19.6,17.2
 2002/11/04,14:30,23.4,27,19.5,17.6
 2002/11/04,14:45,23.3,28,19.6,17.6
 2002/11/04,15:00,23,31,19.6,17.6
 2002/11/04,15:15,22.9,32,19.6,17.7
 2002/11/04,15:30,22.8,33,19.6,17.7
 2002/11/04,15:45,22.7,33,19.6,17.7
 2002/11/04,16:00,22.6,34,19.6,17.2
 2002/11/04,16:15,22.6,35,19.6,17.2
 2002/11/04,16:30,22.5,35,19.8,17.5
 2002/11/04,16:45,22.4,36,19.7,17.5
 2002/11/04,17:00,22.2,36,19.6,17.5
 2002/11/04,17:15,22.1,36,19.6,17.6
 2002/11/04,17:30,22,36,19.5,17.6
 2002/11/04,17:45,21.8,36,19.4,17.6
 2002/11/04,18:00,21.7,36,19.4,17.6
 2002/11/04,18:15,21.6,36,19.3,17.7
 2002/11/04,18:30,21.5,36,19.3,17.7
 2002/11/04,18:45,21.5,37,19.2,17.7
 2002/11/04,19:00,21.4,36,19.2,17.7
 2002/11/04,19:15,21.3,37,19.1,17.7
 2002/11/04,19:30,21.3,37,19.1,16.5
 2002/11/04,19:45,21.4,37,19.1,16.5
 2002/11/04,20:00,21.4,38,19.1,16.5
 2002/11/04,20:15,22.7,34,19.2,17.1
 2002/11/04,20:30,22.9,34,19.2,17.1
 2002/11/04,20:45,22.7,33,19.2,17.1
 2002/11/04,21:00,22.7,31,19.1,17.1
 2002/11/04,21:15,22.7,31,19,17.2
 2002/11/04,21:30,22.8,29,19,17.2
 2002/11/04,21:45,23.2,31,19,17.2
 2002/11/04,22:00,24.1,29,19.2,17.2
 2002/11/04,22:15,24.3,29,19.2,17.2
 2002/11/04,22:30,24.4,29,19.3,17.3
 2002/11/04,22:45,24.4,28,19.4,17.3
 2002/11/04,23:00,24.5,28,19.5,17.9
 2002/11/04,23:15,24.7,31,19.7,18
 2002/11/04,23:30,24.3,36,19.9,17
 2002/11/04,23:45,23.5,36,19.9,17
 2002/11/05, 0:00,23.1,40,19.9,17.1
 2002/11/05, 0:15,23,43,19.9,17.4
 2002/11/05, 0:30,22.9,44,19.9,17.4
 2002/11/05, 0:45,22.7,44,19.9,17.4
 2002/11/05, 1:00,22.6,44,19.9,17.4
 2002/11/05, 1:15,22.4,44,19.8,17.5
 2002/11/05, 1:30,22.2,44,19.8,17.5
 2002/11/05, 1:45,22.1,45,19.7,17.5
 2002/11/05, 2:00,22,45,19.6,17.5
 2002/11/05, 2:15,21.9,45,19.6,17.5
 2002/11/05, 2:30,21.8,46,19.6,17.6
 2002/11/05, 2:45,21.7,46,19.5,17.6
 2002/11/05, 3:00,21.6,47,19.5,17.6
 2002/11/05, 3:15,21.6,46,19.4,17.6
 2002/11/05, 3:30,21.5,46,19.4,17.7
 2002/11/05, 3:45,21.5,46,19.4,17.7
 2002/11/05, 4:00,21.4,47,19.3,17.7
 2002/11/05, 4:15,21.3,47,19.3,17.7
 2002/11/05, 4:30,21.3,46,19.2,17.7
 2002/11/05, 4:45,21.2,46,19.2,17.7
 2002/11/05, 5:00,21.2,46,19.2,17.8
 2002/11/05, 5:15,21.2,46,19.1,17.8
 2002/11/05, 5:30,21.1,46,19.1,16.6
 2002/11/05, 5:45,21.9,48,19.2,16.7
 2002/11/05, 6:00,22.9,44,19.5,16.8
 2002/11/05, 6:15,23.5,39,19.6,16.8
 2002/11/05, 6:30,24.6,40,19.8,16.9
 2002/11/05, 6:45,24.3,41,20.1,16.9
 2002/11/05, 7:00,24,42,20.3,17.4
 2002/11/05, 7:15,24,43,20.4,16.6
 2002/11/05, 7:30,23.8,43,20.4,16.7
 2002/11/05, 7:45,23.5,43,20.5,16.5
 2002/11/05, 8:00,23.1,43,20.4,16.5
 2002/11/05, 8:15,22.9,42,20.3,16.6
 2002/11/05, 8:30,22.8,42,20.2,16.6
 2002/11/05, 8:45,22.7,42,20.1,16.6
 2002/11/05, 9:00,22.5,42,20,16.6
 2002/11/05, 9:15,22.5,42,19.9,16.7
 2002/11/05, 9:30,22.4,41,19.9,16.7
 2002/11/05, 9:45,22.3,41,19.8,16.7
 2002/11/05,10:00,22.3,41,19.8,16.7
 2002/11/05,10:15,22.5,40,19.8,16.8
 2002/11/05,10:30,22.6,40,19.8,16.8
 2002/11/05,10:45,22.6,39,19.8,16.8
 2002/11/05,11:00,22.8,39,19.8,16.9
 2002/11/05,11:15,22.7,39,19.8,16.9
 2002/11/05,11:30,22.6,39,19.8,16.9
 2002/11/05,11:45,22.6,39,19.8,17
 2002/11/05,12:00,22.4,39,19.8,17
 2002/11/05,12:15,22.3,39,19.8,17
 2002/11/05,12:30,22.2,39,19.8,17
 2002/11/05,12:45,22.2,39,19.8,17.1
 2002/11/05,13:00,22.2,39,19.7,17.1
 2002/11/05,13:15,22.1,40,19.7,17.1
 2002/11/05,13:30,22.1,39,19.7,17.1
 2002/11/05,13:45,22.3,39,19.7,17.2
 2002/11/05,14:00,22.4,39,19.6,16.3
 2002/11/05,14:15,22.3,38,19.7,16.3
 2002/11/05,14:30,22,35,19.5,16.3
 2002/11/05,14:45,21.7,33,19.4,16.4
 2002/11/05,15:00,21.4,36,19.1,16.4
 2002/11/05,15:15,21.3,33,19,17.5
 2002/11/05,15:30,21.1,33,18.9,17.4
 2002/11/05,15:45,21.1,33,18.8,17.3
 2002/11/05,16:00,21.2,34,18.8,17.3
 2002/11/05,16:15,21.2,36,18.9,17.3
 2002/11/05,16:30,21.1,36,18.9,17.3
 2002/11/05,16:45,21.1,37,18.9,17.4
 2002/11/05,17:00,21.1,37,18.9,17.4
 2002/11/05,17:15,21,37,19,17.4
 2002/11/05,17:30,21,38,19,17.4
 2002/11/05,17:45,21,38,18.9,17.4
 2002/11/05,18:00,21,38,19,17.4
 2002/11/05,18:15,20.9,38,18.9,17.5
 2002/11/05,18:30,20.9,38,18.8,17.5
 2002/11/05,18:45,20.9,37,18.7,17.5
 2002/11/05,19:00,20.9,37,18.8,17.7
 2002/11/05,19:15,20.9,37,18.6,17.7
 2002/11/05,19:30,21,37,18.6,17.6
 2002/11/05,19:45,21.4,38,18.5,17.6
 2002/11/05,20:00,23.6,39,18.8,17.7
 2002/11/05,20:15,23.4,40,19.2,17.7
 2002/11/05,20:30,22.7,41,19.3,17
 2002/11/05,20:45,22.5,43,19.4,17.1
 2002/11/05,21:00,22.4,43,19.5,17.2
 2002/11/05,21:15,23.9,43,19.6,17.2
 2002/11/05,21:30,25.3,42,20,17.2
 2002/11/05,21:45,24.2,43,20.5,17.2
 2002/11/05,22:00,23.4,41,20.3,16.2
 2002/11/05,22:15,23.1,42,20.3,16.2
 2002/11/05,22:30,22.9,42,20.2,16.2
 2002/11/05,22:45,22.7,42,20,16.3
 2002/11/05,23:00,22.6,41,20,16.3
 2002/11/05,23:15,23.3,42,20,16.3
 2002/11/05,23:30,23.5,43,20.2,16.4
 2002/11/05,23:45,23.6,43,20.3,16.4
 2002/11/06, 0:00,23.6,44,20.4,16.7
 2002/11/06, 0:15,23.6,44,20.5,17
 2002/11/06, 0:30,23.8,45,20.7,17
 2002/11/06, 0:45,23.9,45,20.8,17
 2002/11/06, 1:00,23.9,45,20.8,17.1
 2002/11/06, 1:15,23.2,45,20.8,17.1
 2002/11/06, 1:30,22.9,45,20.7,17.1
 2002/11/06, 1:45,22.8,45,20.6,17.2
 2002/11/06, 2:00,22.6,45,20.6,17.2
 2002/11/06, 2:15,22.4,46,20.5,17.2
 2002/11/06, 2:30,22.3,46,20.4,17.3
 2002/11/06, 2:45,22.2,47,20.4,17.7
 2002/11/06, 3:00,22.1,46,20.3,17.7
 2002/11/06, 3:15,22,46,20.2,17.7
 2002/11/06, 3:30,21.9,47,20.2,17.5
 2002/11/06, 3:45,21.8,48,20.1,17.5
 2002/11/06, 4:00,21.7,47,20,17.5
 2002/11/06, 4:15,21.7,48,20,17.6
 2002/11/06, 4:30,21.6,48,20,17.6
 2002/11/06, 4:45,21.6,48,20,17.6
 2002/11/06, 5:00,21.5,48,19.9,17.6
 2002/11/06, 5:15,21.5,48,19.8,17.7
 2002/11/06, 5:30,21.4,49,19.8,17.7
 2002/11/06, 5:45,22.2,50,19.9,15.9
 2002/11/06, 6:00,22.5,49,19.8,16.2
 2002/11/06, 6:15,22.7,44,19.8,16.2
 2002/11/06, 6:30,23.2,46,20,16.3
 2002/11/06, 6:45,22.7,45,20.3,16.3
 2002/11/06, 7:00,23.2,46,20.3,16.3
 2002/11/06, 7:15,23.4,48,20.5,16.4
 2002/11/06, 7:30,23.6,50,20.7,16.9
 2002/11/06, 7:45,23.9,51,20.9,16.9
 2002/11/06, 8:00,23.5,52,20.9,16.9
 2002/11/06, 8:15,23.9,53,21,16.9
 2002/11/06, 8:30,23.6,49,21,17
 2002/11/06, 8:45,22.9,42,20.7,16.6
 2002/11/06, 9:00,22.7,44,20.6,16.6
 2002/11/06, 9:15,22.6,46,20.5,16
 2002/11/06, 9:30,22.5,47,20.4,16
 2002/11/06, 9:45,22.3,46,20.3,16
 2002/11/06,10:00,22.2,46,20.2,16.1
 2002/11/06,10:15,22.1,46,20.1,16.2
 2002/11/06,10:30,21.9,46,20,16.2
 2002/11/06,10:45,21.8,46,20,16.2
 2002/11/06,11:00,21.8,46,19.8,16.3
 2002/11/06,11:15,21.9,47,19.8,16.3
 2002/11/06,11:30,21.8,46,19.8,16.4
 2002/11/06,11:45,21.7,45,19.7,16.4
 2002/11/06,12:00,21.6,45,19.7,16.4
 2002/11/06,12:15,21.6,45,19.6,16.5
 2002/11/06,12:30,21.5,43,19.5,17.6
 2002/11/06,12:45,21.4,40,19,17.6
 2002/11/06,13:00,21.6,38,18.8,16.2
 2002/11/06,13:15,21.6,38,18.6,16.2
 2002/11/06,13:30,21.7,36,18.7,16.2
 2002/11/06,13:45,21.8,37,18.7,16.2
 2002/11/06,14:00,21.7,39,18.8,16.3
 2002/11/06,14:15,21.8,39,18.8,16.3
 2002/11/06,14:30,21.8,40,18.8,16.4
 2002/11/06,14:45,21.7,40,18.9,16.4
 2002/11/06,15:00,21.6,41,18.9,16.4
 2002/11/06,15:15,21.5,42,19,17.2
 2002/11/06,15:30,21.5,42,19,17.3
 2002/11/06,15:45,21.5,42,19,17.3
 2002/11/06,16:00,21.4,41,18.9,16.4
 2002/11/06,16:15,21.4,42,18.9,16.4
 2002/11/06,16:30,21.5,43,18.9,16.4
 2002/11/06,16:45,21.5,43,18.9,16.4
 2002/11/06,17:00,21.5,43,18.7,16.5
 2002/11/06,17:15,21.4,40,18.3,16.5
 2002/11/06,17:30,21.3,40,18.3,16.5
 2002/11/06,17:45,21.3,41,18.4,16.6
 2002/11/06,18:00,21.3,42,18.3,16.6
 2002/11/06,18:15,21.3,43,18.3,17.1
 2002/11/06,18:30,21.3,41,18.3,17.1
 2002/11/06,18:45,21.3,42,18.4,17.1
 2002/11/06,19:00,21.2,41,18.4,16.7
 2002/11/06,19:15,21.2,43,18.4,16.7
 2002/11/06,19:30,22.1,43,18.5,16.7
 2002/11/06,19:45,23.2,39,18.8,16.7
 2002/11/06,20:00,22.6,41,18.8,16.8
 2002/11/06,20:15,22,42,18.6,16.8
 2002/11/06,20:30,23.7,40,18.6,16.8
 2002/11/06,20:45,24.6,38,18.7,16.8
 2002/11/06,21:00,25.2,37,18.8,16.8
 2002/11/06,21:15,25,37,18.9,16.9
 2002/11/06,21:30,24.7,37,19,16.9
 2002/11/06,21:45,25.3,38,19.3,16.4
 2002/11/06,22:00,25.8,39,19.7,16.7
 2002/11/06,22:15,26.5,40,20.1,16.8
 2002/11/06,22:30,26.6,40,20.4,16.8
 2002/11/06,22:45,26,40,20.5,16.8
 2002/11/06,23:00,26.2,42,20.8,16.8
 2002/11/06,23:15,26.5,42,21.1,16.7
 2002/11/06,23:30,25.2,43,21.2,16.8
 2002/11/06,23:45,24.5,44,21.1,16.8
 2002/11/07, 0:00,24,44,21,16.8
 2002/11/07, 0:15,23.6,45,20.9,16.9
 2002/11/07, 0:30,23.3,46,20.8,16.9
 2002/11/07, 0:45,23,46,20.7,16.9
 2002/11/07, 1:00,22.8,47,20.6,17
 2002/11/07, 1:15,22.6,47,20.5,17
 2002/11/07, 1:30,22.5,47,20.4,17.9
 2002/11/07, 1:45,22.4,47,20.3,18
 2002/11/07, 2:00,22.2,47,20.2,18
 2002/11/07, 2:15,22.1,48,20.2,18
 2002/11/07, 2:30,22,48,20.1,18
 2002/11/07, 2:45,21.9,48,20,18.1
 2002/11/07, 3:00,21.8,48,20,18.1
 2002/11/07, 3:15,21.7,49,19.9,18.1
 2002/11/07, 3:30,21.6,49,19.8,18.1
 2002/11/07, 3:45,21.6,48,19.8,18.1
 2002/11/07, 4:00,21.5,49,19.8,18.2
 2002/11/07, 4:15,21.5,48,19.7,18.2
 2002/11/07, 4:30,21.4,49,19.6,18.2
 2002/11/07, 4:45,21.4,48,19.6,18.2
 2002/11/07, 5:00,21.3,48,19.6,18.2
 2002/11/07, 5:15,21.3,49,19.5,18.3
 2002/11/07, 5:30,21.2,49,19.5,18.3
 2002/11/07, 5:45,21.2,49,19.4,18.3
 2002/11/07, 6:00,21.1,49,19.4,18.3
 2002/11/07, 6:15,21.1,49,19.3,18.3
 2002/11/07, 6:30,21.1,51,19.4,17.3
 2002/11/07, 6:45,21.1,51,19.6,17.3
 2002/11/07, 7:00,21.1,49,19.6,17.3
 2002/11/07, 7:15,21.1,49,19.3,17.3
 2002/11/07, 7:30,21.1,47,18.9,17.4
 2002/11/07, 7:45,21.1,45,18.6,17.6
 2002/11/07, 8:00,21,44,18.5,17.6
 2002/11/07, 8:15,20.9,43,18.4,17.6
 2002/11/07, 8:30,20.8,43,18.3,17.6
 2002/11/07, 8:45,20.7,42,18.2,17.6
 2002/11/07, 9:00,20.6,41,18.1,17.7
 2002/11/07, 9:15,22.5,42,18.3,17.7
 2002/11/07, 9:30,22.6,41,18.5,16.2
 2002/11/07, 9:45,21.8,43,18.5,16.2
 2002/11/07,10:00,21.5,44,18.6,16.2
 2002/11/07,10:15,21.4,44,18.6,16.3
 2002/11/07,10:30,21.3,45,18.7,16.3
 2002/11/07,10:45,21.3,45,18.7,16
 2002/11/07,11:00,21.4,46,18.7,16
 2002/11/07,11:15,21.6,45,18.8,16
 2002/11/07,11:30,21.8,42,18.8,16
 2002/11/07,11:45,22,41,18.8,16.1
 2002/11/07,12:00,22.2,40,18.9,16.1
 2002/11/07,12:15,22.3,38,18.8,16.1
 2002/11/07,12:30,22.5,39,18.9,16.1
 2002/11/07,12:45,22.7,39,19,16.2
 2002/11/07,13:00,22.8,39,19.1,16.2
 2002/11/07,13:15,22.8,38,19.2,16.2
 2002/11/07,13:30,22.7,36,19.2,16.2
 2002/11/07,13:45,22.4,35,19.1,16.3
 2002/11/07,14:00,22.1,34,19.1,16.3
 2002/11/07,14:15,21.9,37,19.1,16.3
 2002/11/07,14:30,23.2,36,19.1,16.4
 2002/11/07,14:45,24.2,34,19.4,17
 2002/11/07,15:00,24.7,34,19.7,17
 2002/11/07,15:15,24.6,34,20,17
 2002/11/07,15:30,24.9,33,20.2,17.1
 2002/11/07,15:45,25,34,20.3,17.2
 2002/11/07,16:00,24.7,32,20.6,16.3
 2002/11/07,16:15,23.8,35,20.8,16.5
 2002/11/07,16:30,23.2,37,20.5,16.6
 2002/11/07,16:45,22.9,38,20.3,16.6
 2002/11/07,17:00,22.6,39,20.2,16.6
 2002/11/07,17:15,22.3,40,20.1,16.6
 2002/11/07,17:30,22.1,40,20,16.7
 2002/11/07,17:45,22,41,19.9,16.7
 2002/11/07,18:00,21.8,41,19.8,16.8
 2002/11/07,18:15,21.7,41,19.7,16.8
 2002/11/07,18:30,21.6,42,19.6,16.8
 2002/11/07,18:45,21.5,42,19.5,16.9
 2002/11/07,19:00,21.4,42,19.5,16.9
 2002/11/07,19:15,21.3,43,19.4,17.5
 2002/11/07,19:30,21.3,44,19.3,16
 2002/11/07,19:45,21.3,45,19.3,16.1